Year,Month,Day,Hour,Minute,Value (Times are PST for windspeed in km/hr)
2012,03,12,00,00,19.60
2012,03,12,00,01,16.90
2012,03,12,00,02,15.80
2012,03,12,00,03,15.80
2012,03,12,00,04,17.10
2012,03,12,00,05,17.40
2012,03,12,00,06,23.80
2012,03,12,00,07,23.20
2012,03,12,00,08,16.00
2012,03,12,00,09,16.10
2012,03,12,00,10,10.40
2012,03,12,00,11,9.70
2012,03,12,00,12,15.70
2012,03,12,00,13,15.10
2012,03,12,00,14,19.50
2012,03,12,00,15,15.50
2012,03,12,00,16,17.10
2012,03,12,00,17,17.80
2012,03,12,00,18,17.50
2012,03,12,00,19,25.10
2012,03,12,00,20,20.10
2012,03,12,00,21,20.00
2012,03,12,00,22,25.30
2012,03,12,00,23,23.60
2012,03,12,00,24,24.50
2012,03,12,00,25,22.60
2012,03,12,00,26,24.50
2012,03,12,00,27,22.80
2012,03,12,00,28,22.90
2012,03,12,00,29,22.50
2012,03,12,00,30,27.70
2012,03,12,00,31,18.30
2012,03,12,00,32,25.80
2012,03,12,00,33,15.00
2012,03,12,00,34,22.60
2012,03,12,00,35,12.60
2012,03,12,00,36,20.50
2012,03,12,00,37,17.90
2012,03,12,00,38,16.00
2012,03,12,00,39,18.70
2012,03,12,00,40,26.50
2012,03,12,00,41,18.80
2012,03,12,00,42,18.10
2012,03,12,00,43,19.30
2012,03,12,00,44,26.10
2012,03,12,00,45,23.20
2012,03,12,00,46,27.60
2012,03,12,00,47,24.60
2012,03,12,00,48,21.30
2012,03,12,00,49,20.90
2012,03,12,00,50,25.70
2012,03,12,00,51,23.20
2012,03,12,00,52,21.40
2012,03,12,00,53,24.60
2012,03,12,00,54,22.80
2012,03,12,00,55,26.00
2012,03,12,00,56,21.00
2012,03,12,00,57,18.80
2012,03,12,00,58,25.10
2012,03,12,00,59,18.80
2012,03,12,01,00,24.90
2012,03,12,01,01,22.70
2012,03,12,01,02,21.80
2012,03,12,01,03,24.70
2012,03,12,01,04,19.50
2012,03,12,01,05,15.80
2012,03,12,01,06,18.00
2012,03,12,01,07,22.60
2012,03,12,01,08,27.20
2012,03,12,01,09,18.80
2012,03,12,01,10,24.10
2012,03,12,01,11,22.00
2012,03,12,01,12,17.10
2012,03,12,01,13,17.20
2012,03,12,01,14,20.00
2012,03,12,01,15,16.80
2012,03,12,01,16,18.80
2012,03,12,01,17,22.30
2012,03,12,01,18,22.30
2012,03,12,01,19,21.80
2012,03,12,01,20,29.50
2012,03,12,01,21,25.60
2012,03,12,01,22,24.60
2012,03,12,01,23,22.70
2012,03,12,01,24,17.70
2012,03,12,01,25,21.20
2012,03,12,01,26,20.70
2012,03,12,01,27,23.70
2012,03,12,01,28,26.60
2012,03,12,01,29,25.90
2012,03,12,01,30,32.10
2012,03,12,01,31,29.40
2012,03,12,01,32,17.90
2012,03,12,01,33,21.30
2012,03,12,01,34,16.80
2012,03,12,01,35,23.50
2012,03,12,01,36,20.80
2012,03,12,01,37,19.50
2012,03,12,01,38,19.70
2012,03,12,01,39,27.90
2012,03,12,01,40,25.10
2012,03,12,01,41,20.90
2012,03,12,01,42,24.20
2012,03,12,01,43,24.70
2012,03,12,01,44,29.40
2012,03,12,01,45,19.20
2012,03,12,01,46,22.40
2012,03,12,01,47,22.80
2012,03,12,01,48,26.60
2012,03,12,01,49,26.60
2012,03,12,01,50,32.90
2012,03,12,01,51,28.90
2012,03,12,01,52,26.50
2012,03,12,01,53,21.30
2012,03,12,01,54,28.70
2012,03,12,01,55,22.90
2012,03,12,01,56,25.30
2012,03,12,01,57,34.20
2012,03,12,01,58,25.50
2012,03,12,01,59,23.40
2012,03,12,02,00,21.60
2012,03,12,02,01,26.00
2012,03,12,02,02,21.60
2012,03,12,02,03,18.10
2012,03,12,02,04,30.00
2012,03,12,02,05,21.30
2012,03,12,02,06,26.50
2012,03,12,02,07,30.00
2012,03,12,02,08,20.80
2012,03,12,02,09,22.90
2012,03,12,02,10,24.70
2012,03,12,02,11,25.60
2012,03,12,02,12,30.70
2012,03,12,02,13,27.40
2012,03,12,02,14,32.00
2012,03,12,02,15,30.10
2012,03,12,02,16,35.20
2012,03,12,02,17,24.10
2012,03,12,02,18,25.20
2012,03,12,02,19,21.10
2012,03,12,02,20,26.30
2012,03,12,02,21,24.50
2012,03,12,02,22,39.00
2012,03,12,02,23,29.20
2012,03,12,02,24,24.70
2012,03,12,02,25,34.60
2012,03,12,02,26,33.00
2012,03,12,02,27,29.70
2012,03,12,02,28,27.00
2012,03,12,02,29,27.90
2012,03,12,02,30,24.90
2012,03,12,02,31,31.90
2012,03,12,02,32,21.20
2012,03,12,02,33,25.80
2012,03,12,02,34,30.10
2012,03,12,02,35,26.10
2012,03,12,02,36,25.80
2012,03,12,02,37,21.60
2012,03,12,02,38,22.60
2012,03,12,02,39,15.30
2012,03,12,02,40,22.40
2012,03,12,02,41,18.20
2012,03,12,02,42,20.70
2012,03,12,02,43,24.50
2012,03,12,02,44,26.60
2012,03,12,02,45,28.20
2012,03,12,02,46,30.30
2012,03,12,02,47,27.70
2012,03,12,02,48,30.40
2012,03,12,02,49,28.90
2012,03,12,02,50,30.80
2012,03,12,02,51,28.80
2012,03,12,02,52,29.30
2012,03,12,02,53,37.40
2012,03,12,02,54,26.70
2012,03,12,02,55,17.10
2012,03,12,02,56,26.80
2012,03,12,02,57,31.10
2012,03,12,02,58,27.90
2012,03,12,02,59,21.70
2012,03,12,03,00,23.90
2012,03,12,03,01,29.50
2012,03,12,03,02,25.20
2012,03,12,03,03,40.10
2012,03,12,03,04,26.40
2012,03,12,03,05,22.10
2012,03,12,03,06,21.70
2012,03,12,03,07,21.90
2012,03,12,03,08,25.30
2012,03,12,03,09,27.40
2012,03,12,03,10,32.00
2012,03,12,03,11,27.30
2012,03,12,03,12,24.10
2012,03,12,03,13,30.20
2012,03,12,03,14,34.20
2012,03,12,03,15,31.90
2012,03,12,03,16,27.70
2012,03,12,03,17,38.20
2012,03,12,03,18,36.40
2012,03,12,03,19,26.60
2012,03,12,03,20,29.80
2012,03,12,03,21,36.40
2012,03,12,03,22,28.10
2012,03,12,03,23,32.30
2012,03,12,03,24,27.00
2012,03,12,03,25,27.40
2012,03,12,03,26,30.80
2012,03,12,03,27,34.20
2012,03,12,03,28,39.20
2012,03,12,03,29,29.00
2012,03,12,03,30,43.70
2012,03,12,03,31,31.50
2012,03,12,03,32,32.20
2012,03,12,03,33,33.70
2012,03,12,03,34,25.80
2012,03,12,03,35,27.30
2012,03,12,03,36,40.60
2012,03,12,03,37,31.80
2012,03,12,03,38,34.80
2012,03,12,03,39,26.90
2012,03,12,03,40,24.30
2012,03,12,03,41,29.00
2012,03,12,03,42,27.00
2012,03,12,03,43,42.20
2012,03,12,03,44,31.10
2012,03,12,03,45,32.70
2012,03,12,03,46,36.00
2012,03,12,03,47,32.40
2012,03,12,03,48,36.80
2012,03,12,03,49,29.60
2012,03,12,03,50,37.10
2012,03,12,03,51,42.80
2012,03,12,03,52,38.50
2012,03,12,03,53,38.00
2012,03,12,03,54,31.70
2012,03,12,03,55,34.60
2012,03,12,03,56,36.40
2012,03,12,03,57,38.50
2012,03,12,03,58,38.50
2012,03,12,03,59,28.80
2012,03,12,04,00,28.60
2012,03,12,04,01,30.60
2012,03,12,04,02,31.50
2012,03,12,04,03,31.80
2012,03,12,04,04,32.40
2012,03,12,04,05,24.70
2012,03,12,04,06,26.60
2012,03,12,04,07,38.30
2012,03,12,04,08,30.80
2012,03,12,04,09,29.30
2012,03,12,04,10,26.00
2012,03,12,04,11,27.60
2012,03,12,04,12,30.90
2012,03,12,04,13,32.10
2012,03,12,04,14,35.50
2012,03,12,04,15,33.60
2012,03,12,04,16,41.80
2012,03,12,04,17,32.80
2012,03,12,04,18,29.60
2012,03,12,04,19,30.70
2012,03,12,04,20,29.50
2012,03,12,04,21,33.00
2012,03,12,04,22,43.90
2012,03,12,04,23,38.60
2012,03,12,04,24,31.50
2012,03,12,04,25,26.60
2012,03,12,04,26,41.90
2012,03,12,04,27,35.70
2012,03,12,04,28,27.70
2012,03,12,04,29,34.80
2012,03,12,04,30,36.00
2012,03,12,04,31,38.10
2012,03,12,04,32,40.80
2012,03,12,04,33,41.60
2012,03,12,04,34,28.10
2012,03,12,04,35,29.60
2012,03,12,04,36,34.90
2012,03,12,04,37,27.40
2012,03,12,04,38,38.80
2012,03,12,04,39,34.60
2012,03,12,04,40,36.90
2012,03,12,04,41,31.00
2012,03,12,04,42,38.50
2012,03,12,04,43,40.10
2012,03,12,04,44,27.00
2012,03,12,04,45,32.50
2012,03,12,04,46,36.30
2012,03,12,04,47,34.20
2012,03,12,04,48,32.60
2012,03,12,04,49,31.90
2012,03,12,04,50,36.30
2012,03,12,04,51,39.00
2012,03,12,04,52,38.60
2012,03,12,04,53,41.20
2012,03,12,04,54,36.40
2012,03,12,04,55,32.80
2012,03,12,04,56,35.10
2012,03,12,04,57,33.20
2012,03,12,04,58,36.10
2012,03,12,04,59,38.30
2012,03,12,05,00,30.20
2012,03,12,05,01,32.80
2012,03,12,05,02,37.30
2012,03,12,05,03,36.70
2012,03,12,05,04,32.30
2012,03,12,05,05,41.80
2012,03,12,05,06,36.10
2012,03,12,05,07,41.10
2012,03,12,05,08,31.00
2012,03,12,05,09,41.00
2012,03,12,05,10,38.10
2012,03,12,05,11,39.20
2012,03,12,05,12,32.90
2012,03,12,05,13,27.00
2012,03,12,05,14,31.40
2012,03,12,05,15,37.10
2012,03,12,05,16,35.90
2012,03,12,05,17,32.60
2012,03,12,05,18,39.60
2012,03,12,05,19,39.80
2012,03,12,05,20,38.10
2012,03,12,05,21,29.60
2012,03,12,05,22,30.30
2012,03,12,05,23,45.80
2012,03,12,05,24,46.90
2012,03,12,05,25,35.30
2012,03,12,05,26,38.90
2012,03,12,05,27,34.50
2012,03,12,05,28,33.60
2012,03,12,05,29,32.70
2012,03,12,05,30,37.80
2012,03,12,05,31,43.10
2012,03,12,05,32,39.00
2012,03,12,05,33,41.30
2012,03,12,05,34,38.50
2012,03,12,05,35,33.60
2012,03,12,05,36,40.60
2012,03,12,05,37,37.50
2012,03,12,05,38,38.30
2012,03,12,05,39,34.60
2012,03,12,05,40,42.40
2012,03,12,05,41,42.80
2012,03,12,05,42,39.10
2012,03,12,05,43,29.20
2012,03,12,05,44,44.20
2012,03,12,05,45,49.10
2012,03,12,05,46,51.20
2012,03,12,05,47,35.50
2012,03,12,05,48,39.60
2012,03,12,05,49,37.60
2012,03,12,05,50,35.20
2012,03,12,05,51,37.30
2012,03,12,05,52,30.50
2012,03,12,05,53,36.00
2012,03,12,05,54,47.40
2012,03,12,05,55,39.20
2012,03,12,05,56,42.60
2012,03,12,05,57,41.80
2012,03,12,05,58,40.60
2012,03,12,05,59,31.10
2012,03,12,06,00,41.40
2012,03,12,06,01,29.90
2012,03,12,06,02,37.00
2012,03,12,06,03,38.60
2012,03,12,06,04,39.30
2012,03,12,06,05,40.70
2012,03,12,06,06,45.50
2012,03,12,06,07,42.60
2012,03,12,06,08,32.20
2012,03,12,06,09,38.70
2012,03,12,06,10,43.00
2012,03,12,06,11,35.50
2012,03,12,06,12,39.90
2012,03,12,06,13,36.20
2012,03,12,06,14,38.70
2012,03,12,06,15,36.50
2012,03,12,06,16,42.90
2012,03,12,06,17,41.40
2012,03,12,06,18,34.60
2012,03,12,06,19,42.10
2012,03,12,06,20,38.20
2012,03,12,06,21,34.50
2012,03,12,06,22,46.60
2012,03,12,06,23,37.90
2012,03,12,06,24,33.60
2012,03,12,06,25,33.10
2012,03,12,06,26,40.60
2012,03,12,06,27,32.70
2012,03,12,06,28,50.10
2012,03,12,06,29,49.10
2012,03,12,06,30,43.30
2012,03,12,06,31,40.10
2012,03,12,06,32,51.10
2012,03,12,06,33,40.80
2012,03,12,06,34,36.90
2012,03,12,06,35,32.20
2012,03,12,06,36,32.90
2012,03,12,06,37,44.70
2012,03,12,06,38,33.50
2012,03,12,06,39,41.00
2012,03,12,06,40,34.00
2012,03,12,06,41,43.20
2012,03,12,06,42,58.50
2012,03,12,06,43,50.70
2012,03,12,06,44,34.80
2012,03,12,06,45,39.00
2012,03,12,06,46,50.20
2012,03,12,06,47,44.80
2012,03,12,06,48,35.70
2012,03,12,06,49,37.50
2012,03,12,06,50,34.90
2012,03,12,06,51,30.80
2012,03,12,06,52,42.80
2012,03,12,06,53,41.20
2012,03,12,06,54,36.90
2012,03,12,06,55,41.00
2012,03,12,06,56,30.50
2012,03,12,06,57,45.50
2012,03,12,06,58,37.10
2012,03,12,06,59,31.70
2012,03,12,07,00,38.10
2012,03,12,07,01,44.50
2012,03,12,07,02,42.30
2012,03,12,07,03,33.00
2012,03,12,07,04,32.60
2012,03,12,07,05,35.10
2012,03,12,07,06,45.30
2012,03,12,07,07,45.60
2012,03,12,07,08,34.40
2012,03,12,07,09,39.60
2012,03,12,07,10,39.90
2012,03,12,07,11,35.80
2012,03,12,07,12,36.50
2012,03,12,07,13,33.30
2012,03,12,07,14,42.80
2012,03,12,07,15,51.00
2012,03,12,07,16,49.70
2012,03,12,07,17,41.30
2012,03,12,07,18,32.60
2012,03,12,07,19,46.40
2012,03,12,07,20,44.20
2012,03,12,07,21,47.20
2012,03,12,07,22,51.00
2012,03,12,07,23,46.40
2012,03,12,07,24,44.30
2012,03,12,07,25,46.20
2012,03,12,07,26,42.30
2012,03,12,07,27,43.60
2012,03,12,07,28,35.30
2012,03,12,07,29,46.10
2012,03,12,07,30,48.40
2012,03,12,07,31,43.20
2012,03,12,07,32,46.40
2012,03,12,07,33,41.80
2012,03,12,07,34,39.70
2012,03,12,07,35,44.70
2012,03,12,07,36,45.10
2012,03,12,07,37,47.10
2012,03,12,07,38,42.90
2012,03,12,07,39,32.40
2012,03,12,07,40,36.40
2012,03,12,07,41,27.00
2012,03,12,07,42,40.20
2012,03,12,07,43,48.80
2012,03,12,07,44,48.70
2012,03,12,07,45,32.70
2012,03,12,07,46,40.90
2012,03,12,07,47,41.40
2012,03,12,07,48,37.40
2012,03,12,07,49,43.50
2012,03,12,07,50,37.70
2012,03,12,07,51,34.40
2012,03,12,07,52,39.10
2012,03,12,07,53,33.20
2012,03,12,07,54,45.00
2012,03,12,07,55,48.00
2012,03,12,07,56,33.90
2012,03,12,07,57,40.60
2012,03,12,07,58,42.90
2012,03,12,07,59,47.60
2012,03,12,08,00,43.90
2012,03,12,08,01,39.60
2012,03,12,08,02,37.20
2012,03,12,08,03,36.50
2012,03,12,08,04,38.50
2012,03,12,08,05,41.00
2012,03,12,08,06,58.40
2012,03,12,08,07,48.80
2012,03,12,08,08,42.60
2012,03,12,08,09,36.90
2012,03,12,08,10,44.80
2012,03,12,08,11,45.70
2012,03,12,08,12,39.50
2012,03,12,08,13,39.70
2012,03,12,08,14,43.30
2012,03,12,08,15,56.80
2012,03,12,08,16,48.30
2012,03,12,08,17,35.60
2012,03,12,08,18,35.70
2012,03,12,08,19,39.00
2012,03,12,08,20,35.50
2012,03,12,08,21,34.60
2012,03,12,08,22,42.60
2012,03,12,08,23,36.10
2012,03,12,08,24,34.50
2012,03,12,08,25,39.80
2012,03,12,08,26,42.90
2012,03,12,08,27,39.40
2012,03,12,08,28,33.10
2012,03,12,08,29,40.20
2012,03,12,08,30,42.80
2012,03,12,08,31,47.20
2012,03,12,08,32,40.60
2012,03,12,08,33,34.60
2012,03,12,08,34,43.40
2012,03,12,08,35,40.40
2012,03,12,08,36,43.00
2012,03,12,08,37,38.20
2012,03,12,08,38,32.20
2012,03,12,08,39,36.00
2012,03,12,08,40,44.20
2012,03,12,08,41,38.60
2012,03,12,08,42,42.70
2012,03,12,08,43,45.10
2012,03,12,08,44,50.40
2012,03,12,08,45,47.90
2012,03,12,08,46,45.10
2012,03,12,08,47,45.50
2012,03,12,08,48,43.00
2012,03,12,08,49,47.80
2012,03,12,08,50,44.90
2012,03,12,08,51,47.60
2012,03,12,08,52,40.90
2012,03,12,08,53,45.20
2012,03,12,08,54,37.90
2012,03,12,08,55,30.90
2012,03,12,08,56,37.90
2012,03,12,08,57,47.40
2012,03,12,08,58,50.20
2012,03,12,08,59,47.50
2012,03,12,09,00,37.20
2012,03,12,09,01,38.90
2012,03,12,09,02,41.50
2012,03,12,09,03,39.60
2012,03,12,09,04,39.70
2012,03,12,09,05,43.30
2012,03,12,09,06,53.20
2012,03,12,09,07,48.30
2012,03,12,09,08,38.20
2012,03,12,09,09,46.80
2012,03,12,09,10,31.60
2012,03,12,09,11,42.80
2012,03,12,09,12,51.00
2012,03,12,09,13,53.10
2012,03,12,09,14,48.90
2012,03,12,09,15,39.20
2012,03,12,09,16,39.60
2012,03,12,09,17,45.90
2012,03,12,09,18,46.60
2012,03,12,09,19,42.00
2012,03,12,09,20,41.50
2012,03,12,09,21,49.00
2012,03,12,09,22,53.30
2012,03,12,09,23,50.00
2012,03,12,09,24,41.90
2012,03,12,09,25,47.30
2012,03,12,09,26,38.10
2012,03,12,09,27,41.50
2012,03,12,09,28,40.20
2012,03,12,09,29,53.70
2012,03,12,09,30,47.50
2012,03,12,09,31,40.90
2012,03,12,09,32,42.20
2012,03,12,09,33,50.10
2012,03,12,09,34,29.80
2012,03,12,09,35,44.20
2012,03,12,09,36,37.30
2012,03,12,09,37,45.70
2012,03,12,09,38,37.20
2012,03,12,09,39,43.30
2012,03,12,09,40,34.70
2012,03,12,09,41,52.50
2012,03,12,09,42,48.70
2012,03,12,09,43,47.30
2012,03,12,09,44,40.80
2012,03,12,09,45,50.00
2012,03,12,09,46,47.00
2012,03,12,09,47,46.60
2012,03,12,09,48,45.20
2012,03,12,09,49,38.50
2012,03,12,09,50,49.40
2012,03,12,09,51,41.80
2012,03,12,09,52,31.50
2012,03,12,09,53,37.80
2012,03,12,09,54,45.00
2012,03,12,09,55,42.20
2012,03,12,09,56,29.40
2012,03,12,09,57,31.00
2012,03,12,09,58,32.40
2012,03,12,09,59,40.20
2012,03,12,10,00,48.00
2012,03,12,10,01,40.90
2012,03,12,10,02,33.90
2012,03,12,10,03,27.40
2012,03,12,10,04,35.60
2012,03,12,10,05,35.60
2012,03,12,10,06,41.90
2012,03,12,10,07,34.10
2012,03,12,10,08,32.30
2012,03,12,10,09,40.10
2012,03,12,10,10,36.80
2012,03,12,10,11,36.40
2012,03,12,10,12,37.80
2012,03,12,10,13,38.20
2012,03,12,10,14,35.60
2012,03,12,10,15,35.00
2012,03,12,10,16,28.60
2012,03,12,10,17,33.30
2012,03,12,10,18,24.50
2012,03,12,10,19,35.70
2012,03,12,10,20,31.10
2012,03,12,10,21,38.80
2012,03,12,10,22,35.20
2012,03,12,10,23,35.90
2012,03,12,10,24,36.00
2012,03,12,10,25,38.10
2012,03,12,10,26,28.00
2012,03,12,10,27,22.10
2012,03,12,10,28,38.10
2012,03,12,10,29,38.80
2012,03,12,10,30,38.60
2012,03,12,10,31,34.00
2012,03,12,10,32,34.90
2012,03,12,10,33,29.20
2012,03,12,10,34,26.30
2012,03,12,10,35,24.70
2012,03,12,10,36,26.40
2012,03,12,10,37,29.20
2012,03,12,10,38,28.40
2012,03,12,10,39,28.60
2012,03,12,10,40,25.50
2012,03,12,10,41,26.10
2012,03,12,10,42,29.80
2012,03,12,10,43,31.30
2012,03,12,10,44,27.20
2012,03,12,10,45,24.80
2012,03,12,10,46,24.60
2012,03,12,10,47,24.20
2012,03,12,10,48,23.10
2012,03,12,10,49,24.90
2012,03,12,10,50,34.10
2012,03,12,10,51,29.70
2012,03,12,10,52,26.60
2012,03,12,10,53,24.40
2012,03,12,10,54,20.40
2012,03,12,10,55,21.20
2012,03,12,10,56,24.30
2012,03,12,10,57,20.60
2012,03,12,10,58,23.90
2012,03,12,10,59,22.30
2012,03,12,11,00,28.30
2012,03,12,11,01,28.60
2012,03,12,11,02,32.60
2012,03,12,11,03,22.80
2012,03,12,11,04,25.70
2012,03,12,11,05,24.80
2012,03,12,11,06,26.00
2012,03,12,11,07,27.70
2012,03,12,11,08,22.20
2012,03,12,11,09,22.00
2012,03,12,11,10,23.30
2012,03,12,11,11,24.10
2012,03,12,11,12,23.50
2012,03,12,11,13,20.00
2012,03,12,11,14,19.50
2012,03,12,11,15,16.70
2012,03,12,11,16,24.90
2012,03,12,11,17,15.50
2012,03,12,11,18,18.00
2012,03,12,11,19,16.90
2012,03,12,11,20,24.00
2012,03,12,11,21,28.60
2012,03,12,11,22,19.00
2012,03,12,11,23,18.40
2012,03,12,11,24,25.90
2012,03,12,11,25,26.10
2012,03,12,11,26,18.70
2012,03,12,11,27,17.80
2012,03,12,11,28,17.90
2012,03,12,11,29,28.30
2012,03,12,11,30,27.90
2012,03,12,11,31,22.60
2012,03,12,11,32,19.60
2012,03,12,11,33,18.60
2012,03,12,11,34,18.60
2012,03,12,11,35,17.90
2012,03,12,11,36,18.30
2012,03,12,11,37,21.50
2012,03,12,11,38,18.70
2012,03,12,11,39,21.30
2012,03,12,11,40,21.00
2012,03,12,11,41,23.10
2012,03,12,11,42,17.00
2012,03,12,11,43,18.80
2012,03,12,11,44,9.70
2012,03,12,11,45,18.00
2012,03,12,11,46,16.20
2012,03,12,11,47,19.70
2012,03,12,11,48,15.70
2012,03,12,11,49,17.10
2012,03,12,11,50,19.70
2012,03,12,11,51,13.80
2012,03,12,11,52,13.00
2012,03,12,11,53,10.20
2012,03,12,11,54,9.60
2012,03,12,11,55,10.20
2012,03,12,11,56,6.70
2012,03,12,11,57,13.00
2012,03,12,11,58,20.00
2012,03,12,11,59,16.80
2012,03,12,12,00,23.70
2012,03,12,12,01,16.20
2012,03,12,12,02,9.70
2012,03,12,12,03,7.60
2012,03,12,12,04,9.70
2012,03,12,12,05,11.30
2012,03,12,12,06,14.80
2012,03,12,12,07,14.70
2012,03,12,12,08,13.20
2012,03,12,12,09,16.50
2012,03,12,12,10,12.10
2012,03,12,12,11,14.40
2012,03,12,12,12,9.40
2012,03,12,12,13,9.30
2012,03,12,12,14,15.10
2012,03,12,12,15,17.50
2012,03,12,12,16,18.50
2012,03,12,12,17,17.40
2012,03,12,12,18,16.30
2012,03,12,12,19,16.20
2012,03,12,12,20,11.80
2012,03,12,12,21,8.40
2012,03,12,12,22,7.90
2012,03,12,12,23,9.70
2012,03,12,12,24,7.00
2012,03,12,12,25,6.90
2012,03,12,12,26,8.00
2012,03,12,12,27,8.20
2012,03,12,12,28,8.80
2012,03,12,12,29,6.00
2012,03,12,12,30,8.20
2012,03,12,12,31,6.40
2012,03,12,12,32,14.20
2012,03,12,12,33,14.60
2012,03,12,12,34,12.10
2012,03,12,12,35,10.40
2012,03,12,12,36,9.60
2012,03,12,12,37,11.70
2012,03,12,12,38,5.50
2012,03,12,12,39,6.00
2012,03,12,12,40,12.70
2012,03,12,12,41,9.10
2012,03,12,12,42,6.40
2012,03,12,12,43,7.70
2012,03,12,12,44,11.90
2012,03,12,12,45,8.60
2012,03,12,12,46,8.30
2012,03,12,12,47,12.90
2012,03,12,12,48,9.70
2012,03,12,12,49,6.90
2012,03,12,12,50,7.40
2012,03,12,12,51,5.80
2012,03,12,12,52,5.40
2012,03,12,12,53,12.10
2012,03,12,12,54,10.50
2012,03,12,12,55,9.30
2012,03,12,12,56,6.30
2012,03,12,12,57,9.70
2012,03,12,12,58,6.60
2012,03,12,12,59,3.70
2012,03,12,13,00,8.00
2012,03,12,13,01,5.40
2012,03,12,13,02,2.60
2012,03,12,13,03,3.50
2012,03,12,13,04,2.80
2012,03,12,13,05,3.90
2012,03,12,13,06,4.90
2012,03,12,13,07,3.30
2012,03,12,13,08,5.10
2012,03,12,13,09,5.60
2012,03,12,13,10,6.30
2012,03,12,13,11,6.60
2012,03,12,13,12,5.10
2012,03,12,13,13,4.40
2012,03,12,13,14,4.00
2012,03,12,13,15,3.70
2012,03,12,13,16,2.40
2012,03,12,13,17,3.50
2012,03,12,13,18,3.60
2012,03,12,13,19,4.10
2012,03,12,13,20,2.70
2012,03,12,13,21,3.00
2012,03,12,13,22,1.40
2012,03,12,13,23,3.30
2012,03,12,13,24,3.10
2012,03,12,13,25,0.70
2012,03,12,13,26,2.90
2012,03,12,13,27,3.10
2012,03,12,13,28,2.80
2012,03,12,13,29,3.20
2012,03,12,13,30,3.30
2012,03,12,13,31,2.60
2012,03,12,13,32,1.70
2012,03,12,13,33,2.30
2012,03,12,13,34,2.50
2012,03,12,13,35,3.20
2012,03,12,13,36,5.00
2012,03,12,13,37,3.90
2012,03,12,13,38,5.80
2012,03,12,13,39,3.50
2012,03,12,13,40,4.60
2012,03,12,13,41,4.30
2012,03,12,13,42,3.20
2012,03,12,13,43,3.20
2012,03,12,13,44,5.30
2012,03,12,13,45,2.60
2012,03,12,13,46,4.10
2012,03,12,13,47,3.40
2012,03,12,13,48,3.70
2012,03,12,13,49,5.10
2012,03,12,13,50,3.30
2012,03,12,13,51,4.00
2012,03,12,13,52,5.60
2012,03,12,13,53,3.00
2012,03,12,13,54,0.90
2012,03,12,13,55,0.80
2012,03,12,13,56,1.40
2012,03,12,13,57,1.10
2012,03,12,13,58,2.50
2012,03,12,13,59,4.30
2012,03,12,14,00,7.00
2012,03,12,14,01,3.90
2012,03,12,14,02,3.60
2012,03,12,14,03,2.40
2012,03,12,14,04,0.60
2012,03,12,14,05,2.60
2012,03,12,14,06,1.30
2012,03,12,14,07,1.60
2012,03,12,14,08,0.90
2012,03,12,14,09,0.80
2012,03,12,14,10,1.40
2012,03,12,14,11,2.50
2012,03,12,14,12,2.50
2012,03,12,14,13,0.50
2012,03,12,14,14,1.00
2012,03,12,14,15,3.20
2012,03,12,14,16,3.20
2012,03,12,14,17,5.60
2012,03,12,14,18,6.60
2012,03,12,14,19,8.10
2012,03,12,14,20,7.90
2012,03,12,14,21,3.90
2012,03,12,14,22,4.40
2012,03,12,14,23,4.50
2012,03,12,14,24,6.20
2012,03,12,14,25,10.00
2012,03,12,14,26,4.90
2012,03,12,14,27,3.40
2012,03,12,14,28,0.30
2012,03,12,14,29,1.90
2012,03,12,14,30,0.10
2012,03,12,14,31,1.30
2012,03,12,14,32,3.40
2012,03,12,14,33,0.90
2012,03,12,14,34,0.00
2012,03,12,14,35,0.00
2012,03,12,14,36,0.40
2012,03,12,14,37,0.00
2012,03,12,14,38,0.10
2012,03,12,14,39,0.00
2012,03,12,14,40,0.00
2012,03,12,14,41,1.00
2012,03,12,14,42,5.50
2012,03,12,14,43,4.30
2012,03,12,14,44,3.50
2012,03,12,14,45,1.00
2012,03,12,14,46,0.00
2012,03,12,14,47,0.80
2012,03,12,14,48,0.00
2012,03,12,14,49,0.40
2012,03,12,14,50,0.90
2012,03,12,14,51,3.50
2012,03,12,14,52,2.50
2012,03,12,14,53,2.90
2012,03,12,14,54,2.50
2012,03,12,14,55,2.00
2012,03,12,14,56,0.90
2012,03,12,14,57,0.00
2012,03,12,14,58,0.20
2012,03,12,14,59,3.00
2012,03,12,15,00,1.90
2012,03,12,15,01,1.10
2012,03,12,15,02,2.90
2012,03,12,15,03,0.20
2012,03,12,15,04,0.00
2012,03,12,15,05,0.50
2012,03,12,15,06,1.40
2012,03,12,15,07,0.00
2012,03,12,15,08,0.00
2012,03,12,15,09,0.20
2012,03,12,15,10,0.90
2012,03,12,15,11,0.00
2012,03,12,15,12,1.70
2012,03,12,15,13,1.80
2012,03,12,15,14,1.00
2012,03,12,15,15,0.00
2012,03,12,15,16,0.50
2012,03,12,15,17,0.00
2012,03,12,15,18,0.70
2012,03,12,15,19,2.10
2012,03,12,15,20,0.60
2012,03,12,15,21,0.10
2012,03,12,15,22,0.00
2012,03,12,15,23,0.10
2012,03,12,15,24,2.40
2012,03,12,15,25,0.60
2012,03,12,15,26,0.20
2012,03,12,15,27,0.00
2012,03,12,15,28,0.10
2012,03,12,15,29,0.20
2012,03,12,15,30,0.40
2012,03,12,15,31,0.20
2012,03,12,15,32,0.00
2012,03,12,15,33,0.00
2012,03,12,15,34,0.00
2012,03,12,15,35,0.40
2012,03,12,15,36,0.60
2012,03,12,15,37,0.20
2012,03,12,15,38,0.30
2012,03,12,15,39,0.20
2012,03,12,15,40,0.00
2012,03,12,15,41,0.00
2012,03,12,15,42,0.00
2012,03,12,15,43,0.00
2012,03,12,15,44,0.00
2012,03,12,15,45,0.00
2012,03,12,15,46,0.00
2012,03,12,15,47,0.10
2012,03,12,15,48,0.20
2012,03,12,15,49,0.00
2012,03,12,15,50,0.00
2012,03,12,15,51,0.00
2012,03,12,15,52,0.10
2012,03,12,15,53,0.10
2012,03,12,15,54,0.00
2012,03,12,15,55,0.00
2012,03,12,15,56,0.00
2012,03,12,15,57,0.00
2012,03,12,15,58,0.00
2012,03,12,15,59,0.00
2012,03,12,16,00,0.00
2012,03,12,16,01,0.00
2012,03,12,16,02,0.00
2012,03,12,16,03,0.20
2012,03,12,16,04,0.10
2012,03,12,16,05,0.40
2012,03,12,16,06,0.90
2012,03,12,16,07,0.00
2012,03,12,16,08,0.00
2012,03,12,16,09,0.00
2012,03,12,16,10,0.00
2012,03,12,16,11,0.00
2012,03,12,16,12,0.00
2012,03,12,16,13,0.00
2012,03,12,16,14,0.00
2012,03,12,16,15,0.00
2012,03,12,16,16,0.00
2012,03,12,16,17,0.00
2012,03,12,16,18,0.00
2012,03,12,16,19,0.00
2012,03,12,16,20,0.00
2012,03,12,16,21,0.10
2012,03,12,16,22,0.20
2012,03,12,16,23,0.00
2012,03,12,16,24,0.00
2012,03,12,16,25,0.00
2012,03,12,16,26,0.00
2012,03,12,16,27,0.00
2012,03,12,16,28,0.10
2012,03,12,16,29,1.30
2012,03,12,16,30,3.20
2012,03,12,16,31,1.20
2012,03,12,16,32,0.50
2012,03,12,16,33,0.90
2012,03,12,16,34,0.20
2012,03,12,16,35,0.00
2012,03,12,16,36,1.30
2012,03,12,16,37,1.00
2012,03,12,16,38,0.00
2012,03,12,16,39,0.00
2012,03,12,16,40,0.00
2012,03,12,16,41,0.00
2012,03,12,16,42,0.00
2012,03,12,16,43,0.30
2012,03,12,16,44,1.30
2012,03,12,16,45,1.90
2012,03,12,16,46,1.00
2012,03,12,16,47,1.60
2012,03,12,16,48,0.10
2012,03,12,16,49,1.10
2012,03,12,16,50,0.40
2012,03,12,16,51,0.00
2012,03,12,16,52,1.30
2012,03,12,16,53,0.10
2012,03,12,16,54,0.10
2012,03,12,16,55,2.70
2012,03,12,16,56,3.00
2012,03,12,16,57,2.10
2012,03,12,16,58,0.50
2012,03,12,16,59,1.80
2012,03,12,17,00,2.60
2012,03,12,17,01,3.00
2012,03,12,17,02,1.80
2012,03,12,17,03,0.20
2012,03,12,17,04,0.20
2012,03,12,17,05,0.20
2012,03,12,17,06,2.40
2012,03,12,17,07,1.40
2012,03,12,17,08,1.90
2012,03,12,17,09,1.40
2012,03,12,17,10,0.00
2012,03,12,17,11,0.00
2012,03,12,17,12,1.60
2012,03,12,17,13,1.50
2012,03,12,17,14,0.20
2012,03,12,17,15,0.00
2012,03,12,17,16,0.00
2012,03,12,17,17,0.20
2012,03,12,17,18,0.50
2012,03,12,17,19,0.10
2012,03,12,17,20,1.30
2012,03,12,17,21,2.70
2012,03,12,17,22,1.80
2012,03,12,17,23,4.20
2012,03,12,17,24,3.00
2012,03,12,17,25,3.30
2012,03,12,17,26,2.70
2012,03,12,17,27,0.50
2012,03,12,17,28,0.00
2012,03,12,17,29,2.20
2012,03,12,17,30,1.50
2012,03,12,17,31,1.10
2012,03,12,17,32,2.50